2017-008AN

Last updated on Tue Feb 28 2017 00:15:03 GMT+0000 (Coordinated Universal Time)

1 41984U 17008AN 17058.89649949 .00002517 00000-0 11446-3 0 9995 2 41984 97.5117 120.5135 0007425 214.7302 145.3450 15.21659118 1756
UTC large
Height (km)
Speed (km/s)
/
Latitude / Longitude
Inclination (degrees)
Orbital Period (minutes)
Azimuth
Elevation
Range (km)
Doppler Factor

Next 0 passes for location: London (51.5072 / 0.1276)

Sorry there are no passes over London.
2017-008AN